Location: Black Swamp Observatory
(41.3920°N, 84.1250°W)
Time: 11:25:20
(UTC-04:00)

Vanguard 2 - Pass Details

Date: 30 January 2022
Orbit: 552 x 2935 km, 32.9° (Epoch: 24 May)

Event Time Altitude Azimuth Distance (km) Brightness Sun altitude
Rises 21:34:19 0° 259° (WSW) 3,927 11.9 -42.0°
Reaches altitude 10° 21:36:39 10° 254° (WSW) 3,214 11.2 -42.4°
Enters shadow 21:41:36 41° 228° (SW) 2,133 9.7 -43.3°
